Tracking 17844 objects as of 27-August-2016
HD Live streaming from Space Station
objects crossing your sky now

COSMOS 482 DESCENT CRAFT

Track COSMOS 482 DESCENT CRAFT now!
10-day predictions
COSMOS 482 DESCENT CRAFT is classified as:


NORAD ID: 6073
Int'l Code: 1972-023E
Perigee: 210.1 km
Apogee: 2,739.5 km
Inclination: 52.1 °
Period: 115.3 minutes
Semi major axis: 7845 km
RCS: 0.7153 m2 (medium)
Launch date: March 31, 1972
Source: Commonwealth of Independent States (former USSR) (CIS)
Launch site: TYURATAM MISSILE AND SPACE COMPLEX (TTMTR)
Your satellite tracking list
Your tracking list is empty





NASA's NSSDC Master Catalog

Two Line Element Set (TLE):
1 06073U 72023E   16240.54181733  .00019596  49403-5  99558-4 0  9990
2 06073  52.0641 307.5004 1611960 346.2332   9.9068 12.49251674324116
Source of the keplerian elements: AFSPC

N2YO: 513